Theta_e
325 325 319 319 319 316 321 325 321 326 327 324 323 323 326 331 332 326 333 334 334 330 330 331 334 336 336 335 335 334 334 333 333 333 332 330 329 329 329 329 329 329 330 330 331 331 330 328 326
324 321 319 315 320 319 318 317 323 324 328 327 328 330 332 333 332 332 333 333 333 328 329 329 333 336 335 335 335 334 333 332 333 333 331 331 330 330 329 329 328 329 330 330 329 330 329 327 327
321 318 316 318 317 322 321 321 321 326 327 325 332 329 330 333 332 332 334 332 330 326 330 329 333 335 334 334 335 333 332 330 331 332 331 331 329 329 328 328 328 329 329 329 329 329 329 327 327
319 318 314 319 324 322 319 324 324 325 325 326 329 333 329 331 333 333 334 330 327 327 329 326 333 334 334 335 334 333 332 329 331 334 330 331 330 329 327 328 327 329 328 328 329 330 328 326 325
318 315 319 322 323 321 320 323 322 326 326 326 326 331 334 331 332 333 333 328 324 330 327 326 332 334 334 334 332 330 330 330 330 331 331 329 328 327 326 327 327 328 328 328 328 327 325 323 322
316 315 322 322 321 321 316 323 324 325 325 328 332 332 332 330 331 333 331 326 325 330 327 323 332 334 334 332 330 329 328 329 329 330 330 329 328 327 326 326 327 328 328 328 326 324 324 323 321
316 319 323 323 322 323 318 319 325 324 325 328 329 331 331 330 332 333 331 325 325 330 327 322 327 333 333 331 329 327 327 328 328 328 328 327 325 326 325 324 326 326 326 325 323 323 323 323 322
317 319 323 323 323 324 321 320 320 323 324 326 329 329 330 328 332 332 329 324 327 330 326 323 322 332 331 330 328 326 327 328 327 326 327 327 325 325 323 320 320 321 319 321 322 322 322 321 321
321 322 326 325 325 324 318 317 317 319 324 326 328 328 329 330 331 330 327 327 331 330 327 325 323 329 330 329 328 324 324 326 325 323 325 325 322 323 322 318 314 315 316 317 321 321 320 320 320
326 327 325 319 321 321 316 316 316 321 324 325 330 331 328 331 329 328 328 328 330 331 329 326 323 324 328 327 326 325 322 323 322 322 321 321 322 322 321 318 316 313 314 315 318 319 319 319 319
324 331 324 326 322 322 319 317 315 319 322 323 326 328 327 328 327 328 328 328 328 329 329 327 326 325 325 325 326 326 324 323 322 320 319 319 318 319 320 319 317 315 314 314 315 317 318 318 318
327 326 326 327 322 323 323 315 312 316 319 317 320 327 327 328 327 327 327 327 328 328 329 327 326 328 327 326 326 326 326 325 324 321 319 318 317 317 316 317 316 316 315 317 317 318 318 319 318
325 327 326 326 322 322 322 322 317 314 313 313 321 327 327 328 328 328 328 327 327 328 328 327 326 327 328 327 327 327 327 327 325 323 321 320 320 320 317 315 315 315 315 315 316 318 318 318 318
323 325 325 325 325 324 325 324 313 313 310 317 327 329 326 328 329 329 328 328 328 328 328 326 327 325 326 328 328 327 327 327 326 324 321 322 323 323 321 319 316 315 315 315 316 318 318 317 318
325 328 327 326 327 327 321 327 315 313 310 313 324 328 327 326 328 329 330 329 329 329 329 326 325 326 325 325 326 328 327 326 326 324 322 322 324 325 324 323 319 316 315 317 319 318 319 318 318
328 327 330 327 328 327 326 331 322 317 310 309 314 324 328 328 327 328 329 330 330 329 329 329 324 323 325 325 323 324 327 326 325 324 323 321 323 325 325 324 321 321 320 320 320 319 319 319 318
327 330 327 327 328 328 325 326 323 317 313 310 308 317 326 329 328 330 328 328 330 330 330 330 328 324 322 322 323 323 323 325 324 323 323 321 321 324 325 324 323 322 323 322 320 320 319 319 319
330 331 325 327 328 328 326 324 322 322 319 313 310 306 320 327 328 330 331 330 329 329 331 330 330 329 326 323 324 323 323 324 324 323 323 321 323 324 325 325 325 323 323 323 321 321 320 319 318
323 326 328 326 326 328 328 328 327 325 322 317 313 310 307 312 325 328 330 331 331 328 329 330 330 330 329 327 326 326 326 327 327 327 324 323 324 326 326 325 325 324 324 323 322 321 320 319 318
327 326 326 325 326 327 326 328 326 326 325 324 323 318 311 309 308 313 326 328 331 331 329 329 330 329 330 328 328 327 327 327 328 328 327 326 326 327 327 326 324 324 323 324 323 322 321 320 319
324 328 327 326 325 326 329 329 327 326 324 324 322 320 319 316 314 310 314 325 327 329 329 328 329 329 329 329 328 327 327 327 327 327 328 328 327 328 327 327 325 324 323 323 323 323 322 321 321
325 323 325 326 328 331 327 332 325 324 326 324 324 322 318 316 315 314 310 314 324 326 329 328 328 328 329 329 328 328 328 328 327 327 326 328 328 328 328 327 327 325 324 323 323 323 323 322 321
326 324 326 326 329 327 327 329 325 324 325 323 323 322 320 317 317 315 313 312 315 322 325 328 328 328 328 328 328 328 328 328 328 327 327 327 328 329 328 328 328 327 325 325 324 323 323 323 322
323 324 325 326 328 330 327 328 326 326 322 321 321 321 321 320 319 318 317 315 311 316 324 326 327 327 327 328 328 327 328 327 327 327 326 326 327 327 327 328 328 328 327 326 326 325 324 323 322
324 326 327 327 326 328 321 326 324 323 315 315 317 315 314 313 311 311 311 308 309 313 320 324 326 326 326 327 327 327 327 327 326 326 326 325 325 325 325 325 327 328 328 327 327 326 325 324 322
324 324 327 328 326 325 318 328 324 319 319 320 317 316 315 308 307 309 310 310 311 311 317 322 324 325 326 326 327 327 327 327 327 326 326 326 326 326 325 324 325 324 325 326 327 326 325 325 324
325 327 321 322 311 318 318 313 314 312 313 311 311 310 313 312 308 306 306 308 309 311 315 320 323 325 325 326 326 326 327 327 327 327 327 327 327 326 326 325 325 325 325 325 325 324 323 322 324
323 320 324 320 326 322 319 316 320 315 315 314 315 311 308 307 308 307 304 303 308 309 313 318 322 324 325 325 326 326 327 327 327 326 326 326 326 326 326 326 325 325 326 325 324 323 322 321 321
321 323 322 322 321 321 320 318 309 314 314 313 309 307 307 306 305 305 306 304 304 306 310 316 320 323 325 326 326 326 326 326 326 326 327 327 327 326 326 326 326 326 327 326 323 323 323 322 322
320 321 322 324 320 315 313 319 311 307 307 306 305 303 302 301 302 301 301 300 301 303 306 312 318 321 323 325 326 326 326 326 326 326 327 327 327 327 327 327 327 328 327 327 326 325 323 323 323
Wind_Speed
22 17 10 5 4 5 2 1 1 3 2 1 3 4 6 3 4 4 0 12 17 19 16 15 13 13 14 14 15 13 13 13 14 15 15 15 15 16 16 16 16 16 17 16 17 18 18 18 19
20 13 4 2 4 3 4 3 4 4 5 6 5 3 1 2 2 4 11 11 21 19 18 16 15 14 15 15 15 14 13 14 14 14 13 14 14 14 15 15 15 16 16 16 16 16 17 17 18
13 10 3 4 3 1 3 3 4 2 7 2 3 2 2 2 2 11 5 17 22 20 19 17 16 16 16 16 15 14 12 14 13 12 12 13 13 14 14 14 14 15 15 15 16 16 16 17 17
9 6 4 3 2 4 3 2 3 6 3 3 4 3 1 4 5 13 14 22 22 21 18 19 17 17 17 17 16 13 11 13 13 13 10 13 12 13 13 14 14 15 14 14 15 15 14 15 15
5 3 3 2 2 3 3 2 5 3 1 2 2 3 2 1 6 13 22 23 22 21 19 20 19 18 19 17 15 14 13 14 13 12 12 12 12 12 12 13 14 14 14 13 13 13 13 14 14
4 3 3 2 3 4 4 4 4 2 2 2 3 5 3 3 11 18 23 23 22 22 20 20 20 20 19 16 14 14 14 15 14 13 12 12 12 12 11 12 13 13 13 12 12 12 12 13 13
5 4 2 2 4 4 2 5 3 4 3 4 6 6 2 4 14 23 23 22 23 21 20 20 22 20 18 16 14 13 15 15 13 14 11 11 12 12 10 12 13 13 13 13 12 11 11 11 10
4 2 4 2 2 5 3 2 2 5 6 2 4 5 5 7 18 25 23 23 23 22 21 20 22 22 20 18 16 13 16 15 13 15 15 13 13 12 10 11 12 12 13 13 13 11 10 9 9
4 3 3 4 0 5 7 6 2 3 3 3 5 3 3 17 24 24 24 23 24 24 22 21 22 24 21 19 16 15 17 17 15 14 15 15 13 13 12 10 11 12 12 12 12 10 8 7 7
5 4 5 2 4 5 8 5 5 2 2 4 2 2 7 27 29 23 21 21 23 27 27 24 22 23 23 21 20 18 17 17 16 15 15 14 13 12 11 11 10 11 12 12 11 9 7 5 5
4 7 9 6 8 2 4 7 5 3 4 8 10 7 12 15 21 20 19 24 26 24 30 29 26 24 23 23 23 21 19 18 17 16 15 15 14 13 12 12 11 11 11 11 10 9 6 4 4
2 4 9 7 7 3 6 6 7 7 12 6 11 8 13 13 20 24 24 28 28 29 33 31 29 27 26 23 24 23 22 20 19 18 17 16 15 14 13 12 11 11 11 11 9 7 6 5 4
1 4 8 10 8 7 3 7 6 10 15 8 4 10 15 15 24 25 24 24 30 31 34 34 32 30 28 27 26 26 25 23 21 19 18 17 16 15 14 12 12 12 12 12 10 7 7 6 6
3 3 5 3 7 7 6 9 4 5 7 7 6 11 13 16 26 20 22 26 33 36 36 36 35 33 31 30 29 29 27 26 23 21 20 19 17 15 14 14 14 14 13 12 10 8 7 7 7
1 4 4 6 3 5 7 10 6 11 5 8 9 9 8 14 18 25 33 30 36 38 36 37 38 36 34 33 31 30 28 26 26 24 23 22 20 17 17 15 15 15 14 13 12 11 10 9 8
1 0 5 5 10 6 7 14 5 7 5 11 10 9 10 11 23 26 28 29 31 33 36 37 38 39 38 36 34 32 31 29 28 27 25 25 24 21 19 20 18 16 16 15 14 13 12 11 10
4 7 6 5 11 4 7 2 7 7 6 12 9 10 11 11 14 26 29 31 34 36 37 38 38 40 40 38 37 35 33 32 30 28 27 27 26 25 23 23 20 18 18 17 16 15 14 12 12
9 6 4 5 4 5 6 9 12 13 11 12 9 8 8 12 18 28 29 34 35 37 38 38 39 40 39 38 37 35 35 33 32 31 31 30 29 27 26 26 23 21 21 21 19 18 16 15 12
12 8 12 3 6 3 11 14 17 13 11 15 13 10 10 13 26 18 28 32 29 32 34 37 40 41 40 39 37 35 36 37 35 34 33 32 32 31 30 29 28 26 25 24 22 20 18 18 15
15 6 7 2 4 5 10 16 16 15 13 16 17 14 12 11 13 18 24 27 33 37 40 39 40 40 44 41 42 34 33 38 40 38 37 35 35 34 32 32 32 30 28 27 26 24 22 21 18
21 20 9 7 1 5 9 20 13 15 19 20 18 17 19 19 17 15 16 29 33 36 42 41 42 44 44 42 36 33 26 30 31 41 40 39 38 37 35 34 34 33 32 32 30 28 27 26 22
20 14 10 9 1 9 3 13 8 7 15 17 21 20 21 21 17 16 16 23 31 39 35 40 42 43 44 43 36 37 34 31 33 30 33 41 41 39 38 37 37 36 34 34 33 32 32 30 26
8 5 12 10 8 1 8 7 4 6 12 12 19 20 21 23 19 19 18 29 35 35 38 44 41 41 42 44 43 39 36 34 29 29 31 37 41 41 40 40 39 38 38 36 36 35 33 33 31
1 1 3 3 4 9 15 8 14 11 14 8 13 15 17 19 20 18 27 28 28 34 36 36 38 43 43 46 47 42 40 34 30 33 34 34 37 39 42 43 42 41 40 40 38 36 36 36 36
15 6 3 3 5 12 9 11 22 15 6 9 11 11 10 10 9 10 11 15 26 31 37 37 39 39 42 45 45 45 44 40 38 38 37 32 33 32 34 40 43 46 44 42 40 39 39 38 38
17 13 4 5 7 4 2 12 6 11 13 16 15 14 8 10 10 11 14 18 25 29 33 37 38 38 40 45 46 45 44 38 40 39 37 39 38 39 37 35 35 40 42 42 42 42 41 40 39
5 13 5 4 2 0 4 9 8 12 11 12 17 9 15 13 9 11 9 17 22 25 32 38 37 37 38 42 42 42 41 40 39 39 40 41 40 37 35 34 34 34 35 39 40 40 40 39 40
7 9 4 3 3 4 7 6 12 12 12 10 15 11 9 10 10 9 9 13 24 30 32 34 37 38 42 43 42 41 43 45 41 37 39 39 39 38 36 33 32 31 32 33 35 35 35 33 34
6 5 5 3 3 4 7 8 7 15 14 9 8 10 8 10 9 8 7 12 14 20 27 31 33 33 34 36 38 37 38 40 40 38 39 40 38 36 35 34 33 33 33 33 32 32 30 33 34
17 14 13 6 9 4 3 21 2 9 7 6 10 12 6 9 9 8 5 7 9 12 19 27 30 33 36 38 37 38 37 37 37 37 37 37 38 36 36 34 33 33 33 32 31 32 32 33 34
Wind_Direction
343 341 334 35 46 64 328 309 113 127 168 261 120 144 177 117 161 205 276 167 160 163 163 162 158 157 145 139 135 128 121 115 116 117 108 104 105 105 106 104 103 104 104 94 91 91 91 87 84
347 344 0 80 73 48 281 267 189 192 139 132 76 34 86 155 112 128 139 163 162 165 162 163 160 155 148 144 138 127 124 119 120 118 111 110 108 106 106 107 108 109 108 98 94 97 93 90 91
349 348 67 87 100 165 247 240 172 98 146 83 103 68 182 188 152 166 167 164 165 165 163 165 163 157 154 152 144 135 130 130 118 129 122 115 111 107 105 105 108 114 112 103 99 104 98 92 93
357 9 40 80 147 251 215 290 160 129 236 164 135 99 295 263 190 175 164 164 168 166 166 167 166 162 162 159 153 147 139 139 128 132 135 122 115 112 108 111 112 117 117 111 102 102 104 95 96
46 56 36 42 252 271 275 170 153 163 147 145 153 209 262 92 164 168 163 167 171 168 168 172 169 174 170 171 170 164 156 148 144 143 146 128 126 116 115 118 120 126 128 116 112 111 108 101 97
33 71 40 302 272 293 301 155 159 215 154 157 97 143 221 230 169 168 168 171 173 172 172 176 178 179 178 177 176 168 159 155 157 156 152 135 131 128 127 128 130 132 131 125 116 113 112 107 100
79 21 232 287 293 334 290 147 202 186 184 242 149 146 259 218 186 171 173 175 177 180 179 180 184 184 184 181 181 178 168 164 162 171 164 153 146 138 143 136 137 140 140 138 131 120 112 117 106
103 60 324 268 291 281 10 275 321 170 222 88 126 209 236 200 182 175 174 179 183 185 186 185 186 188 190 191 186 185 178 175 178 173 177 170 160 153 158 144 142 146 150 150 144 135 124 119 121
113 59 322 303 259 281 9 359 344 315 132 234 190 189 290 170 173 175 173 181 187 191 193 190 190 192 193 193 193 185 185 187 189 180 178 177 176 163 160 152 149 153 154 155 155 146 138 131 126
120 146 206 315 341 320 309 307 305 330 266 268 244 234 152 165 172 173 179 181 191 194 196 194 192 193 197 198 193 190 188 186 187 186 181 180 182 174 169 163 161 160 162 160 159 158 156 148 138
237 175 181 237 259 285 285 313 307 254 250 230 215 181 162 167 177 186 195 192 195 196 197 196 196 194 195 196 194 192 193 190 189 191 189 186 184 184 183 181 176 173 168 167 171 178 181 181 173
229 242 180 188 187 260 280 312 302 213 252 317 252 162 165 178 188 193 199 201 197 201 203 202 199 199 201 199 197 198 198 198 197 197 195 195 192 191 192 192 192 191 191 191 194 202 209 203 198
288 231 221 223 176 225 268 253 240 270 274 278 288 169 180 192 200 204 203 205 206 208 207 208 203 203 204 204 204 204 204 205 205 205 204 203 200 201 201 200 205 205 207 207 210 218 222 225 227
234 258 285 227 204 185 225 259 50 273 339 261 199 210 195 196 201 201 201 205 209 214 214 212 210 207 208 210 213 213 213 210 210 213 211 210 209 209 211 213 215 216 218 217 222 231 238 240 241
4 290 258 233 259 227 180 254 214 247 268 251 240 239 224 214 204 206 208 208 210 215 217 217 216 212 213 215 219 220 219 216 214 217 217 216 215 218 221 225 226 226 228 229 229 230 235 240 248
212 93 247 219 183 237 150 252 257 254 247 258 250 235 235 220 216 216 218 214 215 215 218 221 220 218 217 219 221 223 223 223 221 222 223 223 224 227 225 228 230 230 231 234 235 235 239 245 252
211 235 226 313 194 143 204 231 217 238 246 256 251 238 231 239 231 225 223 222 217 221 221 221 221 222 220 221 224 225 228 227 228 228 228 230 229 228 232 232 236 233 236 237 237 238 239 244 249
207 226 226 227 219 228 244 255 255 252 257 255 256 259 243 239 236 227 222 224 224 223 223 223 222 224 223 222 224 227 230 231 231 231 233 233 232 232 233 236 239 237 237 235 235 236 238 242 250
265 214 232 181 207 175 247 250 257 248 244 251 248 243 242 236 247 235 228 225 220 222 217 220 221 221 220 215 216 222 224 229 230 232 233 232 234 234 234 238 240 237 237 238 238 238 237 238 240
262 248 233 286 185 208 267 262 250 248 246 234 246 245 239 236 245 238 220 217 216 219 220 218 219 218 222 217 218 217 221 230 232 233 234 232 233 234 234 237 239 239 238 238 237 236 236 238 235
234 251 247 249 306 235 289 280 245 251 244 243 244 237 242 237 239 237 216 215 216 214 218 214 215 218 220 217 215 216 221 227 231 232 235 234 234 235 234 238 241 241 239 239 238 236 235 237 236
240 226 249 246 180 271 152 286 250 266 242 222 238 231 232 235 234 232 223 219 214 220 216 217 218 215 219 216 210 210 214 219 224 225 229 235 236 237 237 237 240 242 242 241 242 241 238 238 239
227 192 206 202 202 301 245 275 265 206 256 241 242 235 226 228 224 224 224 224 223 222 215 221 215 215 214 216 213 210 215 221 222 223 224 234 240 239 240 239 239 241 242 244 244 243 239 240 238
177 229 162 194 201 245 240 227 264 237 240 235 242 237 224 228 228 227 230 230 224 220 215 213 210 216 214 216 215 212 215 214 212 216 223 227 234 241 242 240 240 242 243 244 245 246 246 243 241
193 177 228 177 193 236 184 208 245 289 266 233 236 240 228 224 224 220 211 210 215 208 209 209 208 211 212 215 215 213 217 215 216 217 219 221 226 226 232 237 238 239 242 245 246 247 246 244 243
213 213 219 229 206 258 124 234 237 237 269 257 250 252 253 222 214 215 221 218 217 212 206 204 205 208 208 212 215 216 218 215 218 220 221 225 229 233 239 236 232 241 242 244 246 248 249 246 245
163 212 184 141 28 188 232 284 277 252 260 262 261 247 251 251 232 226 218 220 220 216 210 207 206 207 207 210 213 214 214 216 219 221 228 232 236 238 241 241 241 242 244 246 247 244 244 242 245
215 143 169 180 218 248 243 251 245 309 290 247 252 253 259 261 249 225 219 218 227 226 223 215 212 207 209 213 212 213 216 222 222 223 226 230 237 239 240 241 242 244 246 246 244 239 242 238 241
156 198 209 146 200 224 277 263 209 224 256 279 287 268 267 275 270 255 245 223 226 227 224 223 216 211 208 211 213 213 217 220 223 223 231 236 237 239 240 241 241 242 243 244 241 237 235 238 239
217 213 197 218 222 259 286 263 187 231 275 320 293 290 285 270 280 278 273 243 219 217 212 218 220 217 219 219 215 216 219 221 222 226 230 235 239 241 242 242 241 244 245 244 241 240 240 235 237